Time,TemperatureF,DewpointF,PressureIn,WindDirection,WindDirectionDegrees,WindSpeedMPH,WindSpeedGustMPH,Humidity,HourlyPrecipIn,Conditions,Clouds,dailyrainin,SoftwareType,DateUTC
2013-04-14 00:01:00,60.3,44.6,29.79,South,180,7.2,9.2,56,0.00,,,0.00,WUHU216HW,2013-04-14 05:01:00,
2013-04-14 00:06:00,60.3,44.6,29.79,SSW,203,6.9,9.2,56,0.00,,,0.00,WUHU216HW,2013-04-14 05:06:00,
2013-04-14 00:11:00,60.3,44.6,29.79,SSE,158,6.7,9.2,56,0.00,,,0.00,WUHU216HW,2013-04-14 05:11:00,
2013-04-14 00:16:00,60.1,44.8,29.79,SSW,203,6.7,9.2,57,0.00,,,0.00,WUHU216HW,2013-04-14 05:16:00,
2013-04-14 00:22:00,60.1,44.4,29.78,South,180,8.5,8.5,56,0.00,,,0.00,WUHU216HW,2013-04-14 05:22:00,
2013-04-14 00:26:00,60.3,45.0,29.78,SE,135,4.3,8.5,57,0.00,,,0.00,WUHU216HW,2013-04-14 05:26:00,
2013-04-14 00:32:00,60.1,44.4,29.78,South,180,6.7,8.5,56,0.00,,,0.00,WUHU216HW,2013-04-14 05:32:00,
2013-04-14 00:37:00,60.1,44.8,29.78,South,180,6.0,9.2,57,0.00,,,0.00,WUHU216HW,2013-04-14 05:37:00,
2013-04-14 00:42:00,60.1,44.8,29.78,SSE,158,4.7,9.2,57,0.00,,,0.00,WUHU216HW,2013-04-14 05:42:00,
2013-04-14 00:47:00,59.9,45.1,29.78,SSE,158,3.6,7.2,58,0.00,,,0.00,WUHU216HW,2013-04-14 05:47:00,
2013-04-14 00:52:00,60.1,44.8,29.78,SSW,203,5.6,5.6,57,0.00,,,0.00,WUHU216HW,2013-04-14 05:52:00,
2013-04-14 00:57:00,60.1,44.8,29.78,South,180,5.4,5.6,57,0.00,,,0.00,WUHU216HW,2013-04-14 05:57:00,
2013-04-14 01:02:00,59.9,45.1,29.77,South,180,9.4,9.4,58,0.00,,,0.00,WUHU216HW,2013-04-14 06:02:00,
2013-04-14 01:07:00,59.8,44.9,29.77,SSE,158,5.4,10.1,58,0.00,,,0.00,WUHU216HW,2013-04-14 06:07:00,
2013-04-14 01:12:00,59.8,44.9,29.77,SSE,158,6.3,10.1,58,0.00,,,0.00,WUHU216HW,2013-04-14 06:12:00,
2013-04-14 01:17:00,59.4,45.1,29.77,SSE,158,6.3,6.3,59,0.00,,,0.00,WUHU216HW,2013-04-14 06:17:00,
2013-04-14 01:22:00,59.2,45.4,29.77,South,180,4.5,6.3,60,0.00,,,0.00,WUHU216HW,2013-04-14 06:22:00,
2013-04-14 01:27:00,59.4,45.5,29.77,SSE,158,5.4,8.5,60,0.00,,,0.00,WUHU216HW,2013-04-14 06:27:00,
2013-04-14 01:32:00,59.2,45.4,29.76,SSE,158,6.0,8.5,60,0.00,,,0.00,WUHU216HW,2013-04-14 06:32:00,
2013-04-14 01:37:00,59.2,45.4,29.76,SSE,158,6.9,8.1,60,0.00,,,0.00,WUHU216HW,2013-04-14 06:37:00,
2013-04-14 01:42:00,59.4,45.5,29.76,SSE,158,10.7,10.7,60,0.00,,,0.00,WUHU216HW,2013-04-14 06:42:00,
2013-04-14 01:47:00,59.6,45.7,29.76,SSE,158,4.7,10.7,60,0.00,,,0.00,WUHU216HW,2013-04-14 06:47:00,
2013-04-14 01:52:00,59.8,45.5,29.76,South,180,4.5,11.4,59,0.00,,,0.00,WUHU216HW,2013-04-14 06:52:00,
2013-04-14 01:57:00,59.8,45.9,29.76,South,180,6.9,11.4,60,0.00,,,0.00,WUHU216HW,2013-04-14 06:57:00,
2013-04-14 02:02:00,59.6,45.7,29.75,South,180,7.8,12.8,60,0.00,,,0.00,WUHU216HW,2013-04-14 07:02:00,
2013-04-14 02:07:00,59.6,45.7,29.75,South,180,5.8,12.8,60,0.00,,,0.00,WUHU216HW,2013-04-14 07:07:00,
2013-04-14 02:12:00,59.4,46.0,29.75,SSE,158,4.9,7.8,61,0.00,,,0.00,WUHU216HW,2013-04-14 07:12:00,
2013-04-14 02:17:00,59.4,46.0,29.75,SSE,158,5.4,5.4,61,0.00,,,0.00,WUHU216HW,2013-04-14 07:17:00,
2013-04-14 02:22:00,59.2,45.8,29.75,South,180,10.5,10.5,61,0.00,,,0.00,WUHU216HW,2013-04-14 07:22:00,
2013-04-14 02:27:00,59.0,46.0,29.75,SSE,158,8.5,10.5,62,0.00,,,0.00,WUHU216HW,2013-04-14 07:27:00,
2013-04-14 02:32:00,59.0,46.0,29.75,South,180,6.3,12.1,62,0.00,,,0.00,WUHU216HW,2013-04-14 07:32:00,
2013-04-14 02:37:00,59.0,46.0,29.74,South,180,8.1,12.1,62,0.00,,,0.00,WUHU216HW,2013-04-14 07:37:00,
2013-04-14 02:42:00,59.0,46.0,29.74,SSW,203,5.1,9.2,62,0.00,,,0.00,WUHU216HW,2013-04-14 07:42:00,
2013-04-14 02:47:00,58.7,45.7,29.74,South,180,4.5,10.5,62,0.00,,,0.00,WUHU216HW,2013-04-14 07:47:00,
2013-04-14 02:52:00,58.7,45.7,29.74,SSW,203,6.9,10.5,62,0.00,,,0.00,WUHU216HW,2013-04-14 07:52:00,
2013-04-14 02:57:00,58.7,46.1,29.74,SSW,203,6.3,7.8,63,0.00,,,0.00,WUHU216HW,2013-04-14 07:57:00,
2013-04-14 03:02:00,58.7,46.1,29.74,SSW,203,6.9,7.2,63,0.00,,,0.00,WUHU216HW,2013-04-14 08:02:00,
2013-04-14 03:07:00,58.5,45.9,29.74,South,180,8.5,8.5,63,0.00,,,0.00,WUHU216HW,2013-04-14 08:07:00,
2013-04-14 03:13:00,58.3,45.7,29.74,South,180,11.4,11.4,63,0.00,,,0.00,WUHU216HW,2013-04-14 08:13:00,
2013-04-14 03:18:00,58.3,46.2,29.73,South,180,7.4,11.4,64,0.00,,,0.00,WUHU216HW,2013-04-14 08:18:00,
2013-04-14 03:23:00,58.3,46.2,29.73,South,180,8.1,11.4,64,0.00,,,0.00,WUHU216HW,2013-04-14 08:23:00,
2013-04-14 03:28:00,58.1,46.0,29.73,South,180,6.9,8.1,64,0.00,,,0.00,WUHU216HW,2013-04-14 08:28:00,
2013-04-14 03:33:00,58.1,46.0,29.73,SE,135,5.6,8.1,64,0.00,,,0.00,WUHU216HW,2013-04-14 08:33:00,
2013-04-14 03:38:00,58.0,45.8,29.73,South,180,5.8,7.8,64,0.00,,,0.00,WUHU216HW,2013-04-14 08:38:00,
2013-04-14 03:43:00,58.0,45.8,29.73,South,180,6.7,6.9,64,0.00,,,0.00,WUHU216HW,2013-04-14 08:43:00,
2013-04-14 03:48:00,57.6,45.9,29.73,SSW,203,6.0,8.7,65,0.00,,,0.00,WUHU216HW,2013-04-14 08:48:00,
2013-04-14 03:53:00,57.6,45.9,29.73,South,180,6.7,8.7,65,0.00,,,0.00,WUHU216HW,2013-04-14 08:53:00,
2013-04-14 03:58:00,57.6,45.9,29.73,SSE,158,8.5,8.5,65,0.00,,,0.00,WUHU216HW,2013-04-14 08:58:00,
2013-04-14 04:03:00,57.4,45.7,29.72,SSE,158,6.3,9.6,65,0.00,,,0.00,WUHU216HW,2013-04-14 09:03:00,
2013-04-14 04:08:00,57.4,45.7,29.72,SSE,158,5.4,9.6,65,0.00,,,0.00,WUHU216HW,2013-04-14 09:08:00,
2013-04-14 04:13:00,57.2,45.9,29.72,South,180,8.9,8.9,66,0.00,,,0.00,WUHU216HW,2013-04-14 09:13:00,
2013-04-14 04:18:00,57.4,45.7,29.71,SSE,158,5.4,9.2,65,0.00,,,0.00,WUHU216HW,2013-04-14 09:18:00,
2013-04-14 04:23:00,57.2,45.5,29.71,South,180,6.9,9.2,65,0.00,,,0.00,WUHU216HW,2013-04-14 09:23:00,
2013-04-14 04:28:00,57.2,45.9,29.71,SSW,203,6.3,7.8,66,0.00,,,0.00,WUHU216HW,2013-04-14 09:28:00,
2013-04-14 04:33:00,57.2,45.9,29.71,SSE,158,6.0,7.8,66,0.00,,,0.00,WUHU216HW,2013-04-14 09:33:00,
2013-04-14 04:38:00,57.2,45.9,29.71,SSW,203,5.1,8.1,66,0.00,,,0.00,WUHU216HW,2013-04-14 09:38:00,
2013-04-14 04:43:00,57.2,45.9,29.71,SSE,158,6.3,8.5,66,0.00,,,0.00,WUHU216HW,2013-04-14 09:43:00,
2013-04-14 04:48:00,57.4,46.1,29.70,ESE,113,6.0,8.5,66,0.00,,,0.00,WUHU216HW,2013-04-14 09:48:00,
2013-04-14 04:53:00,57.4,46.1,29.70,South,180,5.1,7.4,66,0.00,,,0.00,WUHU216HW,2013-04-14 09:53:00,
2013-04-14 04:58:00,57.6,46.3,29.70,SSE,158,7.6,8.1,66,0.00,,,0.00,WUHU216HW,2013-04-14 09:58:00,
2013-04-14 05:03:00,57.6,45.9,29.69,SSE,158,6.0,8.1,65,0.00,,,0.00,WUHU216HW,2013-04-14 10:03:00,
2013-04-14 05:08:00,57.6,45.9,29.69,South,180,6.0,9.4,65,0.00,,,0.00,WUHU216HW,2013-04-14 10:08:00,
2013-04-14 05:13:00,57.2,45.9,29.68,SSW,203,9.4,9.4,66,0.00,,,0.00,WUHU216HW,2013-04-14 10:13:00,
2013-04-14 05:18:00,57.2,45.9,29.68,South,180,6.3,10.3,66,0.00,,,0.00,WUHU216HW,2013-04-14 10:18:00,
2013-04-14 05:23:00,57.4,46.1,29.68,SE,135,11.2,11.2,66,0.00,,,0.00,WUHU216HW,2013-04-14 10:23:00,
2013-04-14 05:28:00,57.6,46.3,29.67,South,180,7.6,11.2,66,0.00,,,0.00,WUHU216HW,2013-04-14 10:28:00,
2013-04-14 05:33:00,57.6,46.3,29.67,SSE,158,6.3,11.2,66,0.00,,,0.00,WUHU216HW,2013-04-14 10:33:00,
2013-04-14 05:38:00,57.8,46.1,29.67,South,180,8.5,8.5,65,0.00,,,0.00,WUHU216HW,2013-04-14 10:38:00,
2013-04-14 05:43:00,58.0,46.3,29.67,South,180,10.3,10.3,65,0.00,,,0.00,WUHU216HW,2013-04-14 10:43:00,
2013-04-14 05:48:00,57.8,46.1,29.67,South,180,9.2,10.3,65,0.00,,,0.00,WUHU216HW,2013-04-14 10:48:00,
2013-04-14 05:54:00,57.8,46.1,29.67,SSE,158,8.3,10.3,65,0.00,,,0.00,WUHU216HW,2013-04-14 10:54:00,
2013-04-14 05:59:00,57.6,46.3,29.67,SSE,158,6.3,10.5,66,0.00,,,0.00,WUHU216HW,2013-04-14 10:59:00,
2013-04-14 06:04:00,57.6,46.3,29.68,SSW,203,11.4,11.4,66,0.00,,,0.00,WUHU216HW,2013-04-14 11:04:00,
2013-04-14 06:09:00,57.4,46.1,29.68,SSE,158,7.4,11.4,66,0.00,,,0.00,WUHU216HW,2013-04-14 11:09:00,
2013-04-14 06:14:00,57.4,46.1,29.68,SSE,158,10.1,12.1,66,0.00,,,0.00,WUHU216HW,2013-04-14 11:14:00,
2013-04-14 06:19:00,57.4,46.1,29.68,SSE,158,8.3,12.1,66,0.00,,,0.00,WUHU216HW,2013-04-14 11:19:00,
2013-04-14 06:24:00,57.4,46.1,29.68,SE,135,11.4,11.6,66,0.00,,,0.00,WUHU216HW,2013-04-14 11:24:00,
2013-04-14 06:29:00,57.6,46.3,29.68,South,180,11.4,14.1,66,0.00,,,0.00,WUHU216HW,2013-04-14 11:29:00,
2013-04-14 06:34:00,57.6,46.3,29.68,South,180,8.3,14.1,66,0.00,,,0.00,WUHU216HW,2013-04-14 11:34:00,
2013-04-14 06:39:00,57.6,46.3,29.68,South,180,7.6,11.4,66,0.00,,,0.00,WUHU216HW,2013-04-14 11:39:00,
2013-04-14 06:44:00,57.8,46.1,29.68,SSE,158,10.5,10.5,65,0.00,,,0.00,WUHU216HW,2013-04-14 11:44:00,
2013-04-14 06:49:00,58.0,46.3,29.69,SE,135,6.3,10.5,65,0.00,,,0.00,WUHU216HW,2013-04-14 11:49:00,
2013-04-14 06:54:00,58.1,46.0,29.69,SSW,203,6.5,10.7,64,0.00,,,0.00,WUHU216HW,2013-04-14 11:54:00,
2013-04-14 06:59:00,58.3,46.2,29.69,South,180,7.2,12.8,64,0.00,,,0.00,WUHU216HW,2013-04-14 11:59:00,
2013-04-14 07:04:00,58.3,46.5,29.69,SSE,158,8.1,12.8,65,0.00,,,0.00,WUHU216HW,2013-04-14 12:04:00,
2013-04-14 07:09:00,58.3,46.2,29.69,South,180,11.6,11.6,64,0.00,,,0.00,WUHU216HW,2013-04-14 12:09:00,
2013-04-14 07:14:00,58.7,46.5,29.69,South,180,8.5,13.0,64,0.00,,,0.00,WUHU216HW,2013-04-14 12:14:00,
2013-04-14 07:19:00,58.7,46.5,29.69,SSE,158,6.9,13.0,64,0.00,,,0.00,WUHU216HW,2013-04-14 12:19:00,
2013-04-14 07:24:00,58.9,46.7,29.69,South,180,6.9,10.5,64,0.00,,,0.00,WUHU216HW,2013-04-14 12:24:00,
2013-04-14 07:29:00,58.9,46.7,29.70,SSE,158,8.9,10.5,64,0.00,,,0.00,WUHU216HW,2013-04-14 12:29:00,
2013-04-14 07:34:00,59.0,46.8,29.69,South,180,6.9,9.2,64,0.00,,,0.00,WUHU216HW,2013-04-14 12:34:00,
2013-04-14 07:39:00,59.4,47.2,29.69,SE,135,6.9,9.8,64,0.00,,,0.00,WUHU216HW,2013-04-14 12:39:00,
2013-04-14 07:44:00,59.8,47.5,29.69,SSW,203,6.9,9.8,64,0.00,,,0.00,WUHU216HW,2013-04-14 12:44:00,
2013-04-14 07:49:00,59.9,47.7,29.69,SSE,158,12.5,12.5,64,0.00,,,0.00,WUHU216HW,2013-04-14 12:49:00,
2013-04-14 07:54:00,60.1,47.9,29.69,SSE,158,10.3,12.5,64,0.00,,,0.00,WUHU216HW,2013-04-14 12:54:00,
2013-04-14 07:59:00,60.8,48.6,29.69,SSE,158,8.5,12.5,64,0.00,,,0.00,WUHU216HW,2013-04-14 12:59:00,
2013-04-14 08:04:00,61.6,48.4,29.69,SSE,158,16.6,16.6,62,0.00,,,0.00,WUHU216HW,2013-04-14 13:04:00,
2013-04-14 08:09:00,62.1,48.5,29.69,SSE,158,6.3,16.6,61,0.00,,,0.00,WUHU216HW,2013-04-14 13:09:00,
2013-04-14 08:14:00,62.3,48.7,29.69,SSW,203,9.2,16.6,61,0.00,,,0.00,WUHU216HW,2013-04-14 13:14:00,
2013-04-14 08:19:00,62.6,48.6,29.69,SSW,203,11.2,12.8,60,0.00,,,0.00,WUHU216HW,2013-04-14 13:19:00,
2013-04-14 08:25:00,63.0,49.0,29.69,SSE,158,9.6,11.2,60,0.00,,,0.00,WUHU216HW,2013-04-14 13:25:00,
2013-04-14 08:30:00,63.5,49.0,29.69,South,180,10.3,11.2,59,0.00,,,0.00,WUHU216HW,2013-04-14 13:30:00,
2013-04-14 08:35:00,63.9,49.2,29.70,South,180,8.5,11.4,59,0.00,,,0.00,WUHU216HW,2013-04-14 13:35:00,
2013-04-14 08:40:00,64.3,48.6,29.70,SSW,203,8.5,11.4,57,0.00,,,0.00,WUHU216HW,2013-04-14 13:40:00,
2013-04-14 08:45:00,64.6,49.4,29.69,SSW,203,5.8,8.5,58,0.00,,,0.00,WUHU216HW,2013-04-14 13:45:00,
2013-04-14 08:50:00,64.8,49.2,29.69,South,180,8.7,11.9,57,0.00,,,0.00,WUHU216HW,2013-04-14 13:50:00,
2013-04-14 08:55:00,65.2,49.5,29.69,South,180,8.3,11.9,57,0.00,,,0.00,WUHU216HW,2013-04-14 13:55:00,
2013-04-14 09:00:00,65.3,49.1,29.69,South,180,6.3,8.7,56,0.00,,,0.00,WUHU216HW,2013-04-14 14:00:00,
2013-04-14 09:05:00,65.9,49.2,29.69,South,180,8.3,11.9,55,0.00,,,0.00,WUHU216HW,2013-04-14 14:05:00,
2013-04-14 09:10:00,66.2,49.6,29.69,South,180,4.5,11.9,55,0.00,,,0.00,WUHU216HW,2013-04-14 14:10:00,
2013-04-14 09:15:00,66.6,49.4,29.69,SSE,158,9.4,9.4,54,0.00,,,0.00,WUHU216HW,2013-04-14 14:15:00,
2013-04-14 09:20:00,66.8,49.2,29.69,South,180,6.9,9.4,53,0.00,,,0.00,WUHU216HW,2013-04-14 14:20:00,
2013-04-14 09:25:00,67.5,49.2,29.69,South,180,12.8,12.8,52,0.00,,,0.00,WUHU216HW,2013-04-14 14:25:00,
2013-04-14 09:30:00,67.7,49.0,29.69,South,180,12.1,12.8,51,0.00,,,0.00,WUHU216HW,2013-04-14 14:30:00,
2013-04-14 09:35:00,67.7,49.0,29.68,SSW,203,9.2,13.6,51,0.00,,,0.00,WUHU216HW,2013-04-14 14:35:00,
2013-04-14 09:40:00,68.0,49.2,29.68,SSW,203,6.3,13.6,51,0.00,,,0.00,WUHU216HW,2013-04-14 14:40:00,
2013-04-14 09:45:00,68.4,50.6,29.68,SSW,203,6.5,9.8,53,0.00,,,0.00,WUHU216HW,2013-04-14 14:45:00,
2013-04-14 09:50:00,68.9,49.0,29.68,South,180,8.7,8.7,49,0.00,,,0.00,WUHU216HW,2013-04-14 14:50:00,
2013-04-14 09:55:00,69.1,49.1,29.68,SSW,203,11.4,11.4,49,0.00,,,0.00,WUHU216HW,2013-04-14 14:55:00,
2013-04-14 10:00:00,69.5,50.6,29.68,SW,225,4.0,11.4,51,0.00,,,0.00,WUHU216HW,2013-04-14 15:00:00,
2013-04-14 10:05:00,70.4,50.9,29.68,South,180,8.7,11.4,50,0.00,,,0.00,WUHU216HW,2013-04-14 15:05:00,
2013-04-14 10:10:00,70.6,50.5,29.68,South,180,9.4,11.4,49,0.00,,,0.00,WUHU216HW,2013-04-14 15:10:00,
2013-04-14 10:15:00,70.4,50.3,29.68,SW,225,8.9,9.4,49,0.00,,,0.00,WUHU216HW,2013-04-14 15:15:00,
2013-04-14 10:20:00,71.1,50.3,29.68,SSW,203,5.4,9.4,48,0.00,,,0.00,WUHU216HW,2013-04-14 15:20:00,
2013-04-14 10:25:00,71.1,50.3,29.68,SW,225,6.3,11.0,48,0.00,,,0.00,WUHU216HW,2013-04-14 15:25:00,
2013-04-14 10:30:00,71.5,50.0,29.68,SSW,203,10.7,11.0,47,0.00,,,0.00,WUHU216HW,2013-04-14 15:30:00,
2013-04-14 10:35:00,70.7,48.2,29.67,SW,225,9.6,12.3,45,0.00,,,0.00,WUHU216HW,2013-04-14 15:35:00,
2013-04-14 10:40:00,70.9,49.0,29.67,South,180,6.9,12.3,46,0.00,,,0.00,WUHU216HW,2013-04-14 15:40:00,
2013-04-14 10:45:00,71.3,49.3,29.67,SSE,158,11.4,12.1,46,0.00,,,0.00,WUHU216HW,2013-04-14 15:45:00,
2013-04-14 10:50:00,71.6,49.7,29.67,SSW,203,13.4,13.4,46,0.00,,,0.00,WUHU216HW,2013-04-14 15:50:00,
2013-04-14 10:55:00,72.0,48.8,29.67,SSE,158,13.0,13.4,44,0.00,,,0.00,WUHU216HW,2013-04-14 15:55:00,
2013-04-14 11:01:00,72.0,48.2,29.67,South,180,13.4,13.4,43,0.00,,,0.00,WUHU216HW,2013-04-14 16:01:00,
2013-04-14 11:06:00,71.3,48.2,29.66,SSW,203,11.0,13.4,44,0.00,,,0.00,WUHU216HW,2013-04-14 16:06:00,
2013-04-14 11:11:00,72.0,49.4,29.66,South,180,9.2,13.4,45,0.00,,,0.00,WUHU216HW,2013-04-14 16:11:00,
2013-04-14 11:16:00,72.0,49.4,29.66,South,180,8.5,13.4,45,0.00,,,0.00,WUHU216HW,2013-04-14 16:16:00,
2013-04-14 11:21:00,71.6,48.4,29.66,SW,225,12.3,12.3,44,0.00,,,0.00,WUHU216HW,2013-04-14 16:21:00,
2013-04-14 11:26:00,71.5,47.7,29.66,SSE,158,13.4,13.4,43,0.00,,,0.00,WUHU216HW,2013-04-14 16:26:00,
2013-04-14 11:31:00,71.5,48.9,29.66,SSW,203,9.2,13.4,45,0.00,,,0.00,WUHU216HW,2013-04-14 16:31:00,
2013-04-14 11:36:00,72.2,49.0,29.65,SSW,203,6.9,13.4,44,0.00,,,0.00,WUHU216HW,2013-04-14 16:36:00,
2013-04-14 11:41:00,73.1,48.6,29.65,SSW,203,12.5,12.5,42,0.00,,,0.00,WUHU216HW,2013-04-14 16:41:00,
2013-04-14 11:46:00,73.1,48.6,29.65,South,180,10.5,12.5,42,0.00,,,0.00,WUHU216HW,2013-04-14 16:46:00,
2013-04-14 11:51:00,72.7,48.2,29.65,West,270,15.2,15.2,42,0.00,,,0.00,WUHU216HW,2013-04-14 16:51:00,
2013-04-14 11:56:00,72.5,47.5,29.65,South,180,13.4,15.2,41,0.00,,,0.00,WUHU216HW,2013-04-14 16:56:00,
2013-04-14 12:01:00,72.7,50.1,29.65,SSE,158,7.4,15.2,45,0.00,,,0.00,WUHU216HW,2013-04-14 17:01:00,
2013-04-14 12:06:00,73.1,49.8,29.65,South,180,6.9,16.1,44,0.00,,,0.00,WUHU216HW,2013-04-14 17:06:00,
2013-04-14 12:11:00,73.1,48.6,29.64,SSE,158,10.1,16.1,42,0.00,,,0.00,WUHU216HW,2013-04-14 17:11:00,
2013-04-14 12:16:00,72.9,49.0,29.63,SSW,203,11.6,12.5,43,0.00,,,0.00,WUHU216HW,2013-04-14 17:16:00,
2013-04-14 12:21:00,73.3,48.7,29.63,SSE,158,12.3,12.3,42,0.00,,,0.00,WUHU216HW,2013-04-14 17:21:00,
2013-04-14 12:26:00,73.3,47.5,29.63,South,180,10.5,12.3,40,0.00,,,0.00,WUHU216HW,2013-04-14 17:26:00,
2013-04-14 12:31:00,73.4,48.9,29.62,SE,135,13.4,13.4,42,0.00,,,0.00,WUHU216HW,2013-04-14 17:31:00,
2013-04-14 12:36:00,73.4,48.3,29.63,SW,225,9.4,13.4,41,0.00,,,0.00,WUHU216HW,2013-04-14 17:36:00,
2013-04-14 12:41:00,73.1,49.1,29.62,SSE,158,9.2,14.5,43,0.00,,,0.00,WUHU216HW,2013-04-14 17:41:00,
2013-04-14 12:46:00,73.6,49.7,29.62,SSE,158,8.5,14.5,43,0.00,,,0.00,WUHU216HW,2013-04-14 17:46:00,
2013-04-14 12:51:00,74.2,49.6,29.61,SW,225,9.8,11.0,42,0.00,,,0.00,WUHU216HW,2013-04-14 17:51:00,
2013-04-14 12:56:00,74.2,49.0,29.61,WSW,248,10.1,11.0,41,0.00,,,0.00,WUHU216HW,2013-04-14 17:56:00,
2013-04-14 13:01:00,73.8,48.1,29.60,SSW,203,9.6,12.3,40,0.00,,,0.00,WUHU216HW,2013-04-14 18:01:00,
2013-04-14 13:06:00,74.5,47.9,29.60,SSE,158,15.0,15.0,39,0.00,,,0.00,WUHU216HW,2013-04-14 18:06:00,
2013-04-14 13:11:00,74.5,48.7,29.60,SSW,203,11.6,15.0,40,0.00,,,0.00,WUHU216HW,2013-04-14 18:11:00,
2013-04-14 13:16:00,74.5,47.9,29.60,SSW,203,17.7,17.7,39,0.00,,,0.00,WUHU216HW,2013-04-14 18:16:00,
2013-04-14 13:21:00,74.5,48.7,29.60,SSW,203,10.5,17.7,40,0.00,,,0.00,WUHU216HW,2013-04-14 18:21:00,
2013-04-14 13:26:00,74.5,47.9,29.60,South,180,12.1,17.7,39,0.00,,,0.00,WUHU216HW,2013-04-14 18:26:00,
2013-04-14 13:31:00,74.9,49.6,29.59,SSW,203,8.1,12.1,41,0.00,,,0.00,WUHU216HW,2013-04-14 18:31:00,
2013-04-14 13:36:00,74.9,47.5,29.60,South,180,10.7,12.1,38,0.00,,,0.00,WUHU216HW,2013-04-14 18:36:00,
2013-04-14 13:41:00,75.1,48.4,29.60,SSW,203,8.5,10.7,39,0.00,,,0.00,WUHU216HW,2013-04-14 18:41:00,
2013-04-14 13:47:00,75.4,49.5,29.59,SSE,158,8.3,12.3,40,0.00,,,0.00,WUHU216HW,2013-04-14 18:47:00,
2013-04-14 13:52:00,75.8,50.4,29.59,SSW,203,8.5,13.9,41,0.00,,,0.00,WUHU216HW,2013-04-14 18:52:00,
2013-04-14 13:57:00,76.0,47.7,29.58,South,180,9.4,13.9,37,0.00,,,0.00,WUHU216HW,2013-04-14 18:57:00,
2013-04-14 14:02:00,75.8,49.1,29.58,SSE,158,8.9,11.2,39,0.00,,,0.00,WUHU216HW,2013-04-14 19:02:00,
2013-04-14 14:07:00,76.1,46.4,29.58,South,180,13.6,13.6,35,0.00,,,0.00,WUHU216HW,2013-04-14 19:07:00,
2013-04-14 14:12:00,76.0,47.7,29.58,South,180,11.9,13.6,37,0.00,,,0.00,WUHU216HW,2013-04-14 19:12:00,
2013-04-14 14:17:00,76.0,47.7,29.58,South,180,11.9,13.6,37,0.00,,,0.00,WUHU216HW,2013-04-14 19:17:00,
2013-04-14 14:22:00,75.8,49.1,29.58,South,180,11.9,13.6,39,0.00,,,0.00,WUHU216HW,2013-04-14 19:22:00,
2013-04-14 14:27:00,76.0,50.0,29.59,South,180,9.2,13.0,40,0.00,,,0.00,WUHU216HW,2013-04-14 19:27:00,
2013-04-14 14:32:00,76.0,49.2,29.59,South,180,10.7,11.9,39,0.00,,,0.00,WUHU216HW,2013-04-14 19:32:00,
2013-04-14 14:37:00,77.0,51.6,29.59,SSE,158,9.6,11.2,41,0.00,,,0.00,WUHU216HW,2013-04-14 19:37:00,
2013-04-14 14:42:00,77.2,50.3,29.60,SW,225,5.8,11.2,39,0.00,,,0.00,WUHU216HW,2013-04-14 19:42:00,
2013-04-14 14:47:00,76.7,50.6,29.59,SSW,203,8.5,9.6,40,0.00,,,0.00,WUHU216HW,2013-04-14 19:47:00,
2013-04-14 14:52:00,76.7,49.9,29.59,SSW,203,7.8,8.7,39,0.00,,,0.00,WUHU216HW,2013-04-14 19:52:00,
2013-04-14 14:57:00,77.0,49.4,29.58,SSW,203,8.3,11.2,38,0.00,,,0.00,WUHU216HW,2013-04-14 19:57:00,
2013-04-14 15:02:00,77.0,50.2,29.57,South,180,8.5,11.2,39,0.00,,,0.00,WUHU216HW,2013-04-14 20:02:00,
2013-04-14 15:07:00,77.4,50.5,29.57,SSE,158,8.9,11.4,39,0.00,,,0.00,WUHU216HW,2013-04-14 20:07:00,
2013-04-14 15:12:00,77.4,51.8,29.57,South,180,8.5,12.1,41,0.00,,,0.00,WUHU216HW,2013-04-14 20:12:00,
2013-04-14 15:17:00,77.6,51.4,29.57,South,180,8.5,12.1,40,0.00,,,0.00,WUHU216HW,2013-04-14 20:17:00,
2013-04-14 15:22:00,77.9,51.0,29.57,South,180,17.9,17.9,39,0.00,,,0.00,WUHU216HW,2013-04-14 20:22:00,
2013-04-14 15:27:00,77.9,50.2,29.56,South,180,13.6,17.9,38,0.00,,,0.00,WUHU216HW,2013-04-14 20:27:00,
2013-04-14 15:32:00,77.6,49.9,29.56,SSW,203,6.0,17.9,38,0.00,,,0.00,WUHU216HW,2013-04-14 20:32:00,
2013-04-14 15:35:00,77.4,51.3,29.56,SSE,158,6.0,13.6,40,0.00,,,0.00,WUHU216HW,2013-04-14 20:35:00,
2013-04-14 15:59:00,78.3,50.6,29.56,SSW,203,10.5,10.5,38,0.00,,,0.00,WUHU216HW,2013-04-14 20:59:00,
2013-04-14 16:04:00,78.5,51.5,29.56,SW,225,7.6,10.5,39,0.00,,,0.00,WUHU216HW,2013-04-14 21:04:00,
2013-04-14 16:09:00,78.3,51.3,29.56,SSW,203,9.8,10.5,39,0.00,,,0.00,WUHU216HW,2013-04-14 21:09:00,
2013-04-14 16:15:00,78.1,52.6,29.56,SE,135,10.1,13.6,41,0.00,,,0.00,WUHU216HW,2013-04-14 21:15:00,
2013-04-14 16:20:00,78.3,51.3,29.55,SW,225,10.5,13.6,39,0.00,,,0.00,WUHU216HW,2013-04-14 21:20:00,
2013-04-14 16:25:00,78.7,52.4,29.55,SSW,203,6.5,10.5,40,0.00,,,0.00,WUHU216HW,2013-04-14 21:25:00,
2013-04-14 16:30:00,78.5,51.5,29.55,South,180,5.8,10.5,39,0.00,,,0.00,WUHU216HW,2013-04-14 21:30:00,
2013-04-14 16:35:00,78.7,51.7,29.54,SSW,203,8.3,8.3,39,0.00,,,0.00,WUHU216HW,2013-04-14 21:35:00,
2013-04-14 16:40:00,78.5,51.5,29.54,SSW,203,6.9,10.5,39,0.00,,,0.00,WUHU216HW,2013-04-14 21:40:00,
2013-04-14 16:45:00,78.7,52.4,29.53,South,180,7.8,10.5,40,0.00,,,0.00,WUHU216HW,2013-04-14 21:45:00,
2013-04-14 16:50:00,78.7,52.4,29.53,South,180,3.6,9.4,40,0.00,,,0.00,WUHU216HW,2013-04-14 21:50:00,
2013-04-14 16:55:00,79.0,52.8,29.53,SSW,203,8.5,9.4,40,0.00,,,0.00,WUHU216HW,2013-04-14 21:55:00,
2013-04-14 17:00:00,78.5,52.8,29.54,SSE,158,6.5,10.7,41,0.00,,,0.00,WUHU216HW,2013-04-14 22:00:00,
2013-04-14 17:05:00,78.1,51.9,29.55,SSW,203,7.6,10.7,40,0.00,,,0.00,WUHU216HW,2013-04-14 22:05:00,
2013-04-14 17:10:00,78.1,51.1,29.55,SSW,203,9.8,9.8,39,0.00,,,0.00,WUHU216HW,2013-04-14 22:10:00,
2013-04-14 17:15:00,78.5,51.5,29.55,West,270,10.3,10.3,39,0.00,,,0.00,WUHU216HW,2013-04-14 22:15:00,
2013-04-14 17:20:00,78.7,50.9,29.56,South,180,4.7,11.6,38,0.00,,,0.00,WUHU216HW,2013-04-14 22:20:00,
2013-04-14 17:25:00,78.8,52.6,29.56,SW,225,8.1,11.6,40,0.00,,,0.00,WUHU216HW,2013-04-14 22:25:00,
2013-04-14 17:30:00,79.0,52.8,29.57,SW,225,6.9,10.1,40,0.00,,,0.00,WUHU216HW,2013-04-14 22:30:00,
2013-04-14 17:35:00,78.8,52.6,29.57,SW,225,7.8,10.1,40,0.00,,,0.00,WUHU216HW,2013-04-14 22:35:00,
2013-04-14 17:40:00,79.0,52.8,29.57,SSW,203,5.6,7.8,40,0.00,,,0.00,WUHU216HW,2013-04-14 22:40:00,
2013-04-14 17:45:00,78.7,51.7,29.57,WSW,248,10.1,10.1,39,0.00,,,0.00,WUHU216HW,2013-04-14 22:45:00,
2013-04-14 17:50:00,78.3,52.1,29.58,South,180,7.6,10.1,40,0.00,,,0.00,WUHU216HW,2013-04-14 22:50:00,
2013-04-14 17:55:00,77.9,51.8,29.58,SSW,203,7.8,10.1,40,0.00,,,0.00,WUHU216HW,2013-04-14 22:55:00,
2013-04-14 18:00:00,77.9,51.0,29.58,SW,225,8.3,15.0,39,0.00,,,0.00,WUHU216HW,2013-04-14 23:00:00,
2013-04-14 18:05:00,77.8,50.0,29.58,SSW,203,9.4,16.3,38,0.00,,,0.00,WUHU216HW,2013-04-14 23:05:00,
2013-04-14 18:10:00,77.8,51.6,29.58,SW,225,8.1,16.3,40,0.00,,,0.00,WUHU216HW,2013-04-14 23:10:00,
2013-04-14 18:15:00,77.4,51.3,29.58,South,180,6.5,11.2,40,0.00,,,0.00,WUHU216HW,2013-04-14 23:15:00,
2013-04-14 18:20:00,77.0,51.6,29.57,South,180,4.3,9.2,41,0.00,,,0.00,WUHU216HW,2013-04-14 23:20:00,
2013-04-14 18:25:00,77.0,51.6,29.57,WSW,248,6.3,9.2,41,0.00,,,0.00,WUHU216HW,2013-04-14 23:25:00,
2013-04-14 18:30:00,76.7,51.2,29.57,SW,225,4.5,8.5,41,0.00,,,0.00,WUHU216HW,2013-04-14 23:30:00,
2013-04-14 18:35:00,76.5,51.0,29.56,South,180,4.3,8.5,41,0.00,,,0.00,WUHU216HW,2013-04-14 23:35:00,
2013-04-14 18:40:00,76.3,50.3,29.55,WSW,248,11.9,11.9,40,0.00,,,0.00,WUHU216HW,2013-04-14 23:40:00,
2013-04-14 18:45:00,76.0,51.2,29.55,SW,225,5.8,11.9,42,0.00,,,0.00,WUHU216HW,2013-04-14 23:45:00,
2013-04-14 18:50:00,75.6,50.9,29.57,SSW,203,7.8,11.9,42,0.00,,,0.00,WUHU216HW,2013-04-14 23:50:00,
2013-04-14 18:55:00,75.2,50.6,29.58,SW,225,7.6,10.7,42,0.00,,,0.00,WUHU216HW,2013-04-14 23:55:00,
2013-04-14 19:00:00,74.9,51.4,29.58,SSW,203,4.9,7.8,44,0.00,,,0.00,WUHU216HW,2013-04-15 00:00:00,
2013-04-14 19:05:00,74.3,51.0,29.58,SW,225,4.0,7.6,44,0.00,,,0.00,WUHU216HW,2013-04-15 00:05:00,
2013-04-14 19:10:00,74.0,50.6,29.58,WSW,248,4.9,6.9,44,0.00,,,0.00,WUHU216HW,2013-04-15 00:10:00,
2013-04-14 19:15:00,73.6,50.2,29.58,SW,225,10.3,10.3,44,0.00,,,0.00,WUHU216HW,2013-04-15 00:15:00,
2013-04-14 19:20:00,73.4,50.7,29.59,SW,225,9.6,10.3,45,0.00,,,0.00,WUHU216HW,2013-04-15 00:20:00,
2013-04-14 19:25:00,73.4,50.7,29.59,SW,225,6.3,10.3,45,0.00,,,0.00,WUHU216HW,2013-04-15 00:25:00,
2013-04-14 19:30:00,73.4,50.7,29.60,SW,225,6.7,10.3,45,0.00,,,0.00,WUHU216HW,2013-04-15 00:30:00,
2013-04-14 19:35:00,73.3,50.5,29.60,SW,225,5.8,8.3,45,0.00,,,0.00,WUHU216HW,2013-04-15 00:35:00,
2013-04-14 19:40:00,73.1,50.9,29.60,SW,225,4.5,6.7,46,0.00,,,0.00,WUHU216HW,2013-04-15 00:40:00,
2013-04-14 19:45:00,72.7,50.6,29.60,SW,225,4.0,6.9,46,0.00,,,0.00,WUHU216HW,2013-04-15 00:45:00,
2013-04-14 19:50:00,72.4,50.9,29.60,South,180,4.3,6.9,47,0.00,,,0.00,WUHU216HW,2013-04-15 00:50:00,
2013-04-14 19:55:00,72.0,50.6,29.60,SE,135,4.0,6.9,47,0.00,,,0.00,WUHU216HW,2013-04-15 00:55:00,
2013-04-14 20:00:00,71.8,51.0,29.59,South,180,6.5,7.8,48,0.00,,,0.00,WUHU216HW,2013-04-15 01:00:00,
2013-04-14 20:06:00,71.6,50.9,29.59,South,180,4.0,7.8,48,0.00,,,0.00,WUHU216HW,2013-04-15 01:06:00,
2013-04-14 20:11:00,71.3,51.1,29.60,South,180,6.0,6.7,49,0.00,,,0.00,WUHU216HW,2013-04-15 01:11:00,
2013-04-14 20:16:00,70.7,51.2,29.60,South,180,3.6,6.0,50,0.00,,,0.00,WUHU216HW,2013-04-15 01:16:00,
2013-04-14 20:21:00,70.4,50.9,29.60,South,180,6.7,6.7,50,0.00,,,0.00,WUHU216HW,2013-04-15 01:21:00,
2013-04-14 20:26:00,70.0,51.0,29.60,South,180,3.4,6.7,51,0.00,,,0.00,WUHU216HW,2013-04-15 01:26:00,
2013-04-14 20:31:00,69.8,51.0,29.60,South,180,3.6,6.7,51,0.00,,,0.00,WUHU216HW,2013-04-15 01:31:00,
2013-04-14 20:36:00,69.7,50.8,29.60,South,180,4.7,5.1,51,0.00,,,0.00,WUHU216HW,2013-04-15 01:36:00,
2013-04-14 20:41:00,69.5,50.6,29.61,South,180,3.1,5.1,51,0.00,,,0.00,WUHU216HW,2013-04-15 01:41:00,
2013-04-14 20:46:00,69.3,50.4,29.61,South,180,3.4,5.4,51,0.00,,,0.00,WUHU216HW,2013-04-15 01:46:00,
2013-04-14 20:51:00,69.1,50.8,29.62,South,180,3.1,5.4,52,0.00,,,0.00,WUHU216HW,2013-04-15 01:51:00,
2013-04-14 20:56:00,69.1,50.2,29.62,SSE,158,4.7,4.7,51,0.00,,,0.00,WUHU216HW,2013-04-15 01:56:00,
2013-04-14 21:01:00,69.5,50.6,29.62,SSW,203,2.7,6.3,51,0.00,,,0.00,WUHU216HW,2013-04-15 02:01:00,
2013-04-14 21:06:00,69.5,50.6,29.62,South,180,2.2,6.3,51,0.00,,,0.00,WUHU216HW,2013-04-15 02:06:00,
2013-04-14 21:11:00,69.5,50.6,29.63,SSW,203,5.4,5.4,51,0.00,,,0.00,WUHU216HW,2013-04-15 02:11:00,
2013-04-14 21:16:00,69.5,50.6,29.63,South,180,2.5,5.4,51,0.00,,,0.00,WUHU216HW,2013-04-15 02:16:00,
2013-04-14 21:21:00,69.5,50.6,29.63,SSW,203,2.5,4.5,51,0.00,,,0.00,WUHU216HW,2013-04-15 02:21:00,
2013-04-14 21:26:00,69.3,51.4,29.63,South,180,2.7,2.9,53,0.00,,,0.00,WUHU216HW,2013-04-15 02:26:00,
2013-04-14 21:31:00,69.3,51.4,29.64,SW,225,2.7,4.3,53,0.00,,,0.00,WUHU216HW,2013-04-15 02:31:00,
2013-04-14 21:36:00,68.9,52.0,29.65,SSW,203,2.5,4.3,55,0.00,,,0.00,WUHU216HW,2013-04-15 02:36:00,
2013-04-14 21:41:00,68.4,53.0,29.67,WNW,293,5.4,5.4,58,0.00,,,0.00,WUHU216HW,2013-04-15 02:41:00,
2013-04-14 21:46:00,66.6,56.5,29.68,NW,315,9.2,9.2,70,0.00,,,0.00,WUHU216HW,2013-04-15 02:46:00,
2013-04-14 21:51:00,64.8,56.7,29.68,West,270,2.2,9.2,75,0.02,,,0.02,WUHU216HW,2013-04-15 02:51:00,
2013-04-14 21:56:00,64.4,55.6,29.68,West,270,1.1,9.2,73,0.02,,,0.02,WUHU216HW,2013-04-15 02:56:00,
2013-04-14 22:01:00,63.7,56.3,29.68,West,270,1.8,2.2,77,0.02,,,0.02,WUHU216HW,2013-04-15 03:01:00,
2013-04-14 22:06:00,63.2,55.8,29.68,West,270,0.7,1.8,77,0.02,,,0.02,WUHU216HW,2013-04-15 03:06:00,
2013-04-14 22:11:00,62.8,56.2,29.68,West,270,0.7,1.8,79,0.02,,,0.02,WUHU216HW,2013-04-15 03:11:00,
2013-04-14 22:15:00,62.6,57.3,29.68,West,270,1.8,1.8,83,0.02,,,0.02,WUHU216HW,2013-04-15 03:15:00,
2013-04-14 22:20:00,62.5,56.5,29.67,West,270,0.9,1.8,81,0.02,,,0.02,WUHU216HW,2013-04-15 03:20:00,
2013-04-14 22:25:00,62.3,56.3,29.67,ESE,113,0.9,1.8,81,0.02,,,0.02,WUHU216HW,2013-04-15 03:25:00,
2013-04-14 22:31:00,61.7,55.9,29.67,East,90,1.8,2.0,81,0.02,,,0.02,WUHU216HW,2013-04-15 03:31:00,
2013-04-14 22:36:00,61.6,56.3,29.68,ENE,68,0.9,2.0,83,0.02,,,0.02,WUHU216HW,2013-04-15 03:36:00,
2013-04-14 22:41:00,61.4,56.2,29.68,ENE,68,0.0,1.8,83,0.02,,,0.02,WUHU216HW,2013-04-15 03:41:00,
2013-04-14 22:46:00,61.2,56.3,29.68,NE,45,0.0,0.9,84,0.02,,,0.02,WUHU216HW,2013-04-15 03:46:00,
2013-04-14 22:51:00,60.8,55.7,29.69,NE,45,0.0,0.0,83,0.00,,,0.02,WUHU216HW,2013-04-15 03:51:00,
2013-04-14 22:55:00,60.8,56.7,29.68,ESE,113,0.7,1.1,86,0.00,,,0.02,WUHU216HW,2013-04-15 03:55:00,
2013-04-14 23:00:00,61.0,56.5,29.68,ESE,113,1.6,1.6,85,0.00,,,0.02,WUHU216HW,2013-04-15 04:00:00,
2013-04-14 23:05:00,61.0,55.9,29.68,East,90,1.3,1.6,83,0.00,,,0.02,WUHU216HW,2013-04-15 04:05:00,
2013-04-14 23:10:00,61.0,56.5,29.68,ENE,68,2.0,2.5,85,0.00,,,0.02,WUHU216HW,2013-04-15 04:10:00,
2013-04-14 23:15:00,61.0,56.5,29.68,ENE,68,0.4,2.5,85,0.00,,,0.02,WUHU216HW,2013-04-15 04:15:00,
2013-04-14 23:20:00,60.8,56.3,29.69,NNE,23,1.1,2.0,85,0.00,,,0.02,WUHU216HW,2013-04-15 04:20:00,
2013-04-14 23:25:00,60.7,56.2,29.69,North,0,0.4,1.1,85,0.00,,,0.02,WUHU216HW,2013-04-15 04:25:00,
2013-04-14 23:26:00,60.7,56.2,29.70,North,0,0.4,1.1,85,0.00,,,0.02,WUHU216HW,2013-04-15 04:26:00,
2013-04-14 23:30:00,60.5,56.4,29.69,North,0,0.0,1.1,86,0.00,,,0.02,WUHU216HW,2013-04-15 04:30:00,
2013-04-14 23:35:00,60.5,56.6,29.70,NNW,338,0.7,1.6,87,0.01,,,0.03,WUHU216HW,2013-04-15 04:35:00,
2013-04-14 23:40:00,60.7,56.8,29.70,NNW,338,1.1,1.6,87,0.01,,,0.03,WUHU216HW,2013-04-15 04:40:00,
2013-04-14 23:45:00,60.8,56.7,29.71,NNW,338,1.6,1.8,86,0.01,,,0.03,WUHU216HW,2013-04-15 04:45:00,
2013-04-14 23:50:00,60.8,56.7,29.71,NW,315,0.4,1.8,86,0.01,,,0.03,WUHU216HW,2013-04-15 04:50:00,
2013-04-14 23:55:00,60.8,56.7,29.72,NW,315,1.1,1.6,86,0.01,,,0.03,WUHU216HW,2013-04-15 04:55:00,